Regional Weather Roundup
Issued by NWS

Home | Current Version | Previous Version | Text Only | Print | Product List | Glossary On
Versions: 1 2 3 4 5 6 7 8 9 10 11 12 13 14 15 16 17 18 19 20 21 22 23 24 25 26 27 28 29 30 31 32 33 34 35 36 37 38 39 40 41 42 43 44 45 46 47 48 49 50
000
ASUS43 KLSX 301459
RWRMO

WEATHER SUMMARY FOR MISSOURI
NATIONAL WEATHER SERVICE SPRINGFIELD MO
1000 AM CDT TUE SEP 30 2014

NOTE: "FAIR" INDICATES FEW OR NO CLOUDS BELOW 12,000 FEET WITH NO
       SIGNIFICANT WEATHER AND/OR OBSTRUCTIONS TO VISIBILITY.
       CURRENT SKY AND/OR WEATHER CONDITIONS ARE NOT AVAILABLE FOR
       CHILLICOTHE AND FARMINGTON.

MOZ001>031-035>038-043-044-053-054-301600-
...NORTHERN AND WESTERN MISSOURI...

CITY           SKY/WX    TMP DP  RH WIND       PRES   REMARKS
KANSAS CTY INT PTSUNNY   73  61  65 SW12      29.93R
KANSAS C DTWN  MOSUNNY   77  60  55 SW8       29.91F
LEE`S SUMMIT   SUNNY     73  59  61 S8        29.94R
ST JOSEPH      MOSUNNY   75  61  61 SW6       29.91S
CHILLICOTHE      N/A     71  61  70 SE3       29.95F
KIRKSVILLE     FOG       62  61  96 E6        29.98S VSB 3/4

$$
MOZ066>068-077>081-088>096-101>105-301600-
...SOUTHWEST MISSOURI...

CITY           SKY/WX    TMP DP  RH WIND       PRES   REMARKS
SPRINGFIELD    SUNNY     71  61  70 S7        29.97S
JOPLIN         SUNNY     75  61  61 S8        29.96R

$$
MOZ032>034-039>042-045>050-055>058-069>072-301600-
...CENTRAL MISSOURI...

CITY           SKY/WX    TMP DP  RH WIND       PRES   REMARKS
COLUMBIA       SUNNY     72  61  68 S6        29.96S
JEFFERSON CITY SUNNY     68  59  73 SE3       29.95F
ROLLA          SUNNY     75  58  55 S10       29.96S
SEDALIA        MOSUNNY   75  59  57 S6        29.95S
OSAGE BEACH    SUNNY     70  59  68 S5        29.96S

$$
MOZ051-052-059>065-301600-
...EAST CENTRAL MISSOURI...

CITY           SKY/WX    TMP DP  RH WIND       PRES   REMARKS
ST LOUIS INTL  MOSUNNY   74  59  59 NE5       29.97F
SPIRIT OF STL  MOSUNNY   70  59  68 CALM      29.96S
ST CHARLES     SUNNY     72  59  63 CALM      29.96S

$$
MOZ072>076-082>087-097>100-106>115-301600-
...SOUTH CENTRAL AND SOUTHEAST MISSOURI...

CITY           SKY/WX    TMP DP  RH WIND       PRES   REMARKS
CAPE GIRARDEAU SUNNY     73  61  65 CALM      29.97S
FARMINGTON     SUNNY     70  59  68 CALM      30.00S
POPLAR BLUFF   SUNNY     74  59  59 CALM      29.96S
WEST PLAINS    SUNNY     77  55  46 SW6       30.00S

$$



USA.gov is the U.S. government's official web portal to all federal, state and local government web resources and services.